TimeCST,TemperatureF,Dew PointF,Humidity,Sea Level PressureIn,VisibilityMPH,Wind Direction,Wind SpeedMPH,Gust SpeedMPH,PrecipitationIn,Events,Conditions,WindDirDegrees,DateUTC
12:55 AM,70.5,70.0,98,29.82,6.2,NE,3.5,-,N/A,,Partly Cloudy,50,2012-10-07 06:55:00
1:31 AM,69.8,69.8,100,29.82,6.2,Calm,Calm,-,N/A,,Scattered Clouds,0,2012-10-07 07:31:00
1:55 AM,70.0,69.6,99,29.81,6.2,Calm,Calm,-,N/A,,Mostly Cloudy,0,2012-10-07 07:55:00
2:06 AM,69.8,69.8,100,29.80,6.2,Calm,Calm,-,N/A,,Scattered Clouds,0,2012-10-07 08:06:00
2:18 AM,69.8,69.8,100,29.80,5.0,East,3.5,-,N/A,,Scattered Clouds,90,2012-10-07 08:18:00
2:55 AM,70.0,69.6,99,29.79,6.2,Calm,Calm,-,N/A,,Mostly Cloudy,0,2012-10-07 08:55:00
3:41 AM,69.8,69.8,100,29.80,6.2,Calm,Calm,-,N/A,,Overcast,0,2012-10-07 09:41:00
3:55 AM,70.3,70.0,99,29.80,6.2,Calm,Calm,-,N/A,,Overcast,0,2012-10-07 09:55:00
4:02 AM,69.8,69.8,100,29.80,5.6,South,3.5,-,N/A,,Overcast,180,2012-10-07 10:02:00
4:07 AM,69.8,69.8,100,29.81,6.2,SSW,3.5,-,N/A,,Overcast,200,2012-10-07 10:07:00
4:35 AM,69.8,69.8,100,29.81,6.2,Calm,Calm,-,N/A,,Overcast,0,2012-10-07 10:35:00
4:45 AM,69.8,69.8,100,29.81,6.2,Calm,Calm,-,N/A,,Overcast,0,2012-10-07 10:45:00
4:55 AM,69.8,69.4,99,29.82,6.2,Calm,Calm,-,N/A,,Overcast,0,2012-10-07 10:55:00
4:58 AM,69.8,69.8,100,29.82,6.2,Calm,Calm,-,N/A,,Overcast,0,2012-10-07 10:58:00
5:19 AM,69.8,69.8,100,29.83,6.2,Calm,Calm,-,N/A,,Overcast,0,2012-10-07 11:19:00
5:42 AM,69.8,69.8,100,29.83,6.2,Calm,Calm,-,N/A,,Overcast,0,2012-10-07 11:42:00
5:55 AM,70.3,70.0,99,29.84,6.2,Calm,Calm,-,0.01,,Overcast,0,2012-10-07 11:55:00
6:00 AM,67,,,,6,North,4.6,,,,Haze,0,2012-10-07 12:00:00
6:15 AM,69.8,69.8,100,29.84,6.2,Calm,Calm,-,N/A,,Overcast,0,2012-10-07 12:15:00
6:55 AM,71.6,71.2,99,29.85,6.2,Calm,Calm,-,N/A,,Overcast,0,2012-10-07 12:55:00
7:55 AM,72.7,71.2,95,29.86,6.2,NW,4.6,-,N/A,,Overcast,310,2012-10-07 13:55:00
8:55 AM,75.9,70.2,82,29.86,6.2,North,10.4,-,N/A,,Overcast,350,2012-10-07 14:55:00
9:55 AM,77.7,70.2,77,29.86,6.2,NNW,9.2,-,N/A,,Overcast,330,2012-10-07 15:55:00
10:55 AM,82.0,71.1,69,29.84,6.2,NNW,9.2,-,N/A,,Scattered Clouds,330,2012-10-07 16:55:00
11:55 AM,81.7,70.2,68,29.81,6.2,NW,9.2,-,N/A,,Overcast,320,2012-10-07 17:55:00
12:00 PM,82,,,,6,North,4.6,,,,Mostly Cloudy,0,2012-10-07 18:00:00
12:55 PM,83.5,72.1,69,29.78,6.2,NW,8.1,-,N/A,,Mostly Cloudy,310,2012-10-07 18:55:00
1:55 PM,83.3,70.2,64,29.75,6.2,NNW,12.7,-,N/A,,Mostly Cloudy,330,2012-10-07 19:55:00
2:55 PM,81.3,69.1,66,29.73,6.2,North,12.7,-,N/A,,Mostly Cloudy,360,2012-10-07 20:55:00
3:00 PM,80,,,,6,North,4.6,,,,Mostly Cloudy,10,2012-10-07 21:00:00
3:55 PM,80.2,69.8,70,29.73,6.2,North,17.3,-,N/A,,Overcast,360,2012-10-07 21:55:00
3:56 PM,80.6,69.8,70,29.74,6.2,North,15.0,-,N/A,,Light Drizzle,10,2012-10-07 21:56:00
4:22 PM,77.0,69.8,78,29.77,6.2,North,16.1,-,N/A,,Mostly Cloudy,350,2012-10-07 22:22:00
4:38 PM,77.0,69.8,78,29.76,6.2,North,16.1,-,N/A,Rain,Light Rain,350,2012-10-07 22:38:00
4:55 PM,74.7,70.9,88,29.78,6.2,North,12.7,-,0.01,Rain,Light Rain,350,2012-10-07 22:55:00
5:55 PM,73.8,70.7,90,29.81,6.2,NNW,9.2,-,0.00,,Overcast,330,2012-10-07 23:55:00
6:00 PM,74,,,,6,South,4.6,,,,Haze,180,2012-10-08 00:00:00
6:55 PM,73.9,70.2,88,29.84,6.2,NNE,5.8,-,N/A,,Overcast,20,2012-10-08 00:55:00
7:12 PM,75.2,69.8,83,29.86,6.2,ENE,8.1,-,N/A,,Overcast,60,2012-10-08 01:12:00
7:36 PM,73.4,71.6,94,29.87,6.2,Calm,Calm,-,N/A,,Scattered Clouds,0,2012-10-08 01:36:00
7:43 PM,73.4,71.6,94,29.87,6.2,Calm,Calm,-,N/A,,Mostly Cloudy,0,2012-10-08 01:43:00
7:55 PM,73.4,70.9,92,29.88,6.2,Calm,Calm,-,N/A,,Mostly Cloudy,0,2012-10-08 01:55:00
8:55 PM,73.0,72.1,97,29.88,6.2,SE,4.6,-,N/A,,Overcast,130,2012-10-08 02:55:00
9:42 PM,71.6,69.8,94,29.89,6.2,East,3.5,-,N/A,,Overcast,90,2012-10-08 03:42:00
9:55 PM,72.0,69.3,91,29.89,6.2,East,3.5,-,N/A,,Overcast,80,2012-10-08 03:55:00
10:12 PM,71.6,69.8,94,29.89,6.2,East,4.6,-,N/A,,Overcast,100,2012-10-08 04:12:00
10:55 PM,72.3,69.3,90,29.88,6.2,Calm,Calm,-,N/A,,Overcast,0,2012-10-08 04:55:00
11:32 PM,71.6,69.8,94,29.88,6.2,Calm,Calm,-,N/A,,Overcast,0,2012-10-08 05:32:00
11:55 PM,71.6,69.4,93,29.88,6.2,Calm,Calm,-,N/A,,Overcast,0,2012-10-08 05:55:00